[Date Prev][Date Next][Thread Prev][Thread Next] - [Date Index][Thread Index][Author Index]

2 Line ISS Keps 4-18



ISS
1 25544U 98067A   04109.19606481  .00019358  00000-0  17268-3 0  5954
2 25544  51.6279 271.5107 0011013  44.6085 309.9526 15.68386435308899


----
Via the sarex mailing list at AMSAT.ORG courtesy of AMSAT-NA.
To unsubscribe, send "unsubscribe sarex" to Majordomo@amsat.org



AMSAT Top AMSAT Home